{"data":{"norad_id":68760,"intl_designator":"2026-084A","name":"DAQI-2","alt_names":[],"object_type":"PAYLOAD","status":"ACTIVE","operator":null,"country":"PRC","launch_date":"2026-04-17","launch_site_code":"JSC","launch_vehicle":null,"mission":null,"orbit_class":"UNKNOWN","rcs_meters":null,"size_class":null,"mass_kg":null,"dimensions":null,"purposes":[],"wikipedia_slug":null,"has_3d_model":false,"image_url":null,"decayed_at":null,"tle_current":{"epoch":"2026-09-19T11:50:02.686560Z","epoch_age_seconds":146695,"freshness":"FRESH","line1":"1 68760U 26084A   26262.49308665  .00000227  00000+0  59986-4 0  9997","line2":"2 68760  98.2800 336.2201 0002574 138.8109 221.3284 14.57589755 22632","mean_motion":14.57589755,"eccentricity":0.0002574,"inclination_deg":98.28,"raan_deg":336.2201,"arg_perigee_deg":138.8109,"mean_anomaly_deg":221.3284,"bstar":5.9986e-5,"rev_number":2263,"period_min":98.793230060814,"perigee_km":699.14501144188,"apogee_km":702.78933427007,"semimajor_km":7079.104172856,"source":"CELESTRAK","updated_at":"2026-09-20T09:00:24.452722Z"}}}